TimeEDT,TemperatureF,Dew PointF,Humidity,Sea Level PressureIn,VisibilityMPH,Wind Direction,Wind SpeedMPH,Gust SpeedMPH,PrecipitationIn,Events,Conditions,WindDirDegrees,DateUTC
12:52 AM,53.1,44.1,71,29.86,10.0,WNW,13.8,-,N/A,,Overcast,290,2013-10-07 04:52:00
1:52 AM,51.1,46.9,86,29.86,10.0,Calm,Calm,-,N/A,,Overcast,0,2013-10-07 05:52:00
2:52 AM,48.0,45.0,89,29.87,10.0,SW,4.6,-,N/A,,Partly Cloudy,230,2013-10-07 06:52:00
3:52 AM,48.0,44.1,86,29.86,10.0,WSW,5.8,-,N/A,,Clear,240,2013-10-07 07:52:00
4:52 AM,46.9,44.1,90,29.87,10.0,SSW,5.8,-,N/A,,Clear,210,2013-10-07 08:52:00
5:52 AM,46.0,43.0,89,29.88,10.0,SW,5.8,-,N/A,,Scattered Clouds,220,2013-10-07 09:52:00
6:52 AM,46.9,44.1,90,29.88,10.0,SSW,6.9,-,N/A,,Overcast,200,2013-10-07 10:52:00
7:52 AM,48.9,45.0,86,29.89,10.0,SSW,4.6,-,N/A,,Overcast,210,2013-10-07 11:52:00
8:52 AM,50.0,45.0,83,29.92,10.0,SW,6.9,-,N/A,,Mostly Cloudy,220,2013-10-07 12:52:00
9:35 AM,51.8,44.6,76,29.95,10.0,WSW,11.5,20.7,N/A,,Mostly Cloudy,240,2013-10-07 13:35:00
9:52 AM,52.0,45.0,77,29.95,10.0,West,13.8,21.9,N/A,,Mostly Cloudy,260,2013-10-07 13:52:00
10:52 AM,54.0,45.0,72,29.97,10.0,WSW,11.5,-,N/A,,Mostly Cloudy,240,2013-10-07 14:52:00
11:09 AM,55.4,44.6,67,29.98,10.0,West,11.5,-,N/A,,Mostly Cloudy,280,2013-10-07 15:09:00
11:52 AM,54.0,44.1,69,30.00,10.0,West,11.5,19.6,N/A,,Mostly Cloudy,280,2013-10-07 15:52:00
12:52 PM,57.0,45.0,64,30.00,10.0,West,11.5,-,N/A,,Mostly Cloudy,280,2013-10-07 16:52:00
1:52 PM,59.0,45.0,60,30.01,10.0,West,8.1,-,N/A,,Scattered Clouds,280,2013-10-07 17:52:00
2:52 PM,60.1,43.0,53,30.01,10.0,West,11.5,-,N/A,,Scattered Clouds,280,2013-10-07 18:52:00
3:52 PM,61.0,45.0,56,30.02,10.0,West,11.5,23.0,N/A,,Partly Cloudy,260,2013-10-07 19:52:00
4:52 PM,61.0,44.1,54,30.02,10.0,West,9.2,-,N/A,,Scattered Clouds,270,2013-10-07 20:52:00
5:52 PM,60.1,44.1,55,30.04,10.0,WNW,11.5,-,N/A,,Mostly Cloudy,290,2013-10-07 21:52:00
6:52 PM,57.9,46.0,65,30.06,10.0,West,4.6,-,N/A,,Scattered Clouds,260,2013-10-07 22:52:00
7:52 PM,53.1,46.0,77,30.09,10.0,Calm,Calm,-,N/A,,Clear,0,2013-10-07 23:52:00
8:52 PM,51.1,46.0,83,30.11,10.0,Calm,Calm,-,N/A,,Clear,0,2013-10-08 00:52:00
9:52 PM,48.9,46.9,93,30.14,10.0,Calm,Calm,-,N/A,,Clear,0,2013-10-08 01:52:00
10:52 PM,48.0,46.0,93,30.15,5.0,Calm,Calm,-,N/A,,Partly Cloudy,0,2013-10-08 02:52:00
11:52 PM,48.9,46.9,93,30.17,10.0,Calm,Calm,-,N/A,,Partly Cloudy,0,2013-10-08 03:52:00